Temp
16 16 16 16 16 16 15 14 14 14 14 14 14 14 14 14 14 14 14 14 14 14 14 14 14 14 14 14 14 14 14 15 15 15 15 15 15 16 16 16 16 16 17 17 17 17 17 16 16 15 15 14 13 13 13 13 14 14 15 15 16 16 16 16 16 16 16 16 16
16 16 16 16 16 15 15 14 14 14 14 14 14 14 14 14 14 14 14 14 13 13 13 14 14 14 14 14 14 14 14 14 14 14 15 15 15 15 15 15 16 16 16 16 16 16 16 15 14 14 13 13 13 13 13 13 13 14 15 15 15 16 16 16 16 16 16 16 16
16 16 16 16 16 15 14 14 14 14 14 14 14 14 14 14 14 14 14 14 13 13 13 14 14 14 14 14 13 13 13 14 14 14 14 15 15 15 15 15 15 15 15 15 16 16 15 14 13 13 13 13 13 13 13 13 13 14 14 15 15 15 15 15 15 15 15 15 15
17 17 17 17 16 15 14 14 14 14 14 14 14 14 14 14 14 14 14 14 14 13 13 14 14 14 14 14 13 13 13 13 13 13 14 14 15 15 15 15 15 15 15 15 15 15 14 13 13 13 13 13 13 13 13 13 14 14 14 15 15 15 15 15 15 15 15 15 15
17 17 17 17 16 15 14 14 14 14 14 14 14 14 14 14 14 14 14 14 14 14 14 14 14 14 14 14 14 13 13 13 13 13 14 14 15 15 14 14 14 14 14 14 15 15 14 14 13 13 14 14 14 14 13 13 14 14 14 14 14 14 14 14 14 14 14 15 15
17 17 17 17 15 14 14 14 13 14 14 14 14 14 13 14 14 14 14 14 14 14 14 14 14 14 14 15 14 14 13 13 13 13 14 14 14 14 14 14 14 13 14 14 14 14 14 14 14 14 14 14 14 13 13 13 13 14 14 14 14 14 14 14 14 14 14 15 15
17 17 17 16 15 14 14 13 13 13 13 13 14 14 13 13 14 14 14 14 13 13 14 14 14 14 14 14 14 14 13 13 12 13 13 14 14 14 14 14 13 13 13 13 14 14 14 13 13 13 13 13 13 13 13 13 13 13 13 13 13 13 14 14 14 14 14 14 14
18 18 17 16 15 14 14 13 13 13 13 13 13 13 13 13 13 13 13 13 13 13 13 14 14 14 14 14 13 13 13 12 12 12 13 13 14 14 14 14 13 13 13 13 13 13 13 13 13 13 13 13 13 13 13 13 13 13 13 13 13 13 13 13 13 13 13 12 12
18 18 18 17 16 14 14 14 13 13 13 13 13 13 13 13 13 13 13 13 13 13 13 13 13 13 13 13 13 13 12 12 12 12 13 13 13 14 15 15 14 13 13 13 13 13 13 13 13 13 13 13 13 13 13 14 13 13 13 13 13 13 12 12 12 11 11 10 10
18 18 18 18 16 15 14 14 14 13 13 13 13 13 13 13 13 13 13 13 14 13 13 13 13 13 13 13 13 12 12 12 12 13 13 13 13 14 14 14 14 13 13 13 13 13 13 13 13 13 13 13 13 13 13 13 13 13 13 13 12 11 10 10 10 10 10 10 10
17 17 17 17 16 16 15 14 14 13 13 13 13 13 13 13 13 13 13 13 13 13 13 13 13 13 13 13 13 12 12 12 13 13 13 13 14 14 14 14 13 13 13 13 12 12 12 13 13 13 13 12 12 12 12 12 12 12 12 12 10 10 9 9 9 9 10 9 10
16 16 16 16 16 16 16 15 14 14 13 13 13 13 13 13 13 13 13 13 13 13 13 13 13 13 13 13 12 12 12 13 13 13 13 14 14 14 13 13 13 13 13 12 12 12 12 12 12 12 12 12 12 12 12 12 11 11 11 10 9 9 9 9 9 9 9 9 9
16 16 16 16 16 16 16 16 15 14 14 14 14 13 13 13 13 13 13 13 13 13 13 13 13 12 12 12 12 12 12 13 13 13 13 13 13 13 13 13 13 13 13 12 12 12 12 11 12 12 12 12 12 12 11 11 11 11 10 9 9 9 9 9 9 9 9 9 9
16 16 16 15 15 15 15 15 15 15 15 15 14 14 13 13 13 13 14 14 14 14 14 14 14 13 13 12 12 12 12 13 13 13 13 13 13 13 13 13 13 12 12 12 11 11 11 11 11 11 11 11 11 11 10 11 11 10 10 9 9 9 9 9 9 9 9 9 9
17 17 16 16 16 16 16 15 15 15 15 14 14 14 13 13 13 14 14 14 14 15 15 15 15 14 13 13 13 13 13 12 12 12 12 13 13 13 13 13 13 12 11 11 11 11 11 11 11 10 10 10 10 10 10 10 10 9 9 9 9 9 9 9 9 9 9 9 9
18 18 17 17 17 17 16 16 15 15 15 14 14 14 13 13 14 14 14 13 13 14 15 15 15 14 13 13 13 12 12 12 12 12 12 13 13 13 13 13 12 12 11 10 10 10 10 10 10 9 9 9 9 9 10 10 9 9 9 9 8 8 9 9 9 9 9 9 9
18 18 17 17 17 17 16 16 15 15 15 14 14 14 14 14 14 14 14 13 13 13 13 14 14 14 13 13 12 12 12 12 12 12 12 12 12 12 12 12 11 11 10 10 9 9 9 9 9 9 9 9 9 9 9 8 8 8 8 8 8 8 8 8 8 8 8 8 8
17 17 17 17 16 16 16 15 15 14 14 14 14 14 14 14 14 14 14 13 13 13 13 13 13 13 13 12 12 12 12 12 12 12 12 12 12 12 12 11 11 10 10 9 9 9 9 8 8 9 9 9 9 8 8 8 7 7 7 7 7 7 8 8 8 8 8 8 8
16 16 16 16 16 15 15 15 14 14 14 14 14 14 14 14 14 14 14 14 14 14 14 14 14 13 13 12 12 12 12 12 12 12 12 12 11 11 11 10 10 9 9 9 8 8 8 8 8 8 8 8 8 7 7 7 7 7 7 7 7 7 7 7 7 7 7 8 7
15 15 15 15 14 14 14 14 13 13 13 13 14 14 14 14 14 15 15 15 15 15 14 14 14 13 13 12 12 12 12 12 11 11 11 11 11 10 10 9 9 9 8 8 8 8 8 8 7 7 7 7 7 7 7 7 7 7 7 7 6 6 6 6 6 7 7 7 7
14 14 14 14 13 13 13 13 13 13 13 13 13 13 13 14 14 14 15 15 15 15 14 14 13 13 12 12 12 12 11 11 11 11 10 10 10 9 9 8 8 8 8 8 7 7 7 7 7 7 6 7 7 7 7 7 6 6 6 5 5 5 5 5 6 6 6 6 6
13 13 13 13 13 13 13 13 13 13 13 13 13 13 13 14 14 14 14 14 14 14 14 13 13 12 12 12 12 11 11 11 10 10 10 9 9 9 8 8 8 7 7 7 7 7 7 6 6 6 6 6 6 6 6 5 5 5 4 4 4 4 5 5 5 5 6 6 6
12 12 12 12 12 12 12 12 12 12 13 13 13 13 13 13 13 13 13 13 13 13 12 12 12 12 12 11 11 11 10 10 10 9 9 9 8 8 8 7 7 7 7 7 6 6 6 6 6 6 6 6 5 5 5 5 4 4 4 4 4 4 4 4 5 5 5 5 5
12 12 12 12 12 12 12 12 12 12 12 12 13 13 13 13 13 13 12 12 12 12 12 12 11 11 11 11 11 10 10 10 9 8 8 8 8 7 7 7 7 7 6 6 6 6 6 6 6 6 5 5 5 5 5 5 4 4 4 4 4 4 4 4 4 4 4 4 4
12 12 12 12 12 12 12 12 12 12 12 12 12 13 13 12 12 12 11 11 11 11 11 11 11 11 10 10 10 10 9 9 9 8 8 8 7 7 7 7 6 6 6 5 5 5 5 5 5 5 5 5 5 5 5 4 4 4 4 4 3 3 4 4 4 4 4 4 3
12 12 12 12 12 11 11 11 12 12 12 12 12 12 12 12 11 11 11 11 11 11 11 10 10 10 9 9 9 9 8 8 8 8 7 7 7 7 6 6 6 5 5 5 5 4 4 4 4 4 5 5 5 4 4 4 4 4 3 3 3 3 3 4 4 4 4 4 3
12 12 12 12 12 11 11 11 11 12 12 12 12 11 11 11 11 11 11 11 10 10 10 9 9 9 8 8 8 8 7 7 7 7 7 7 6 6 6 5 5 5 4 4 4 4 4 4 4 4 4 4 4 4 4 4 4 3 3 3 3 3 3 3 3 4 4 4 4
12 12 12 12 12 11 11 11 11 11 11 11 11 11 11 11 11 11 10 10 10 9 9 9 8 8 8 7 7 7 7 6 6 7 6 6 6 5 5 5 5 5 4 4 4 4 4 4 4 4 4 3 4 4 4 4 3 3 3 3 3 3 3 3 3 3 4 4 4
11 12 12 11 11 11 11 11 11 11 11 11 11 11 10 10 10 10 10 9 9 9 9 8 7 7 7 7 7 6 6 6 6 6 6 5 5 5 5 4 4 5 4 4 4 4 4 4 4 4 3 4 4 4 4 4 4 4 3 3 3 3 3 4 3 3 3 3 3
11 11 11 11 11 11 11 11 11 11 11 10 10 10 10 10 10 10 9 9 9 8 9 8 7 7 7 7 6 6 6 6 6 5 5 5 5 5 4 4 4 4 4 4 4 4 4 4 3 3 3 4 4 4 4 3 4 4 4 4 3 3 3 3 3 3 3 3 3
11 11 11 11 11 11 11 10 10 10 10 10 10 10 10 10 9 9 9 9 8 8 8 8 7 7 7 6 6 6 6 6 6 5 5 5 5 5 5 4 4 4 4 4 4 4 4 3 3 3 3 3 3 3 3 3 4 4 4 4 3 3 3 3 3 3 3 3 3
10 10 10 10 10 10 10 10 10 9 9 9 9 9 9 9 9 9 8 8 8 8 8 7 7 7 7 6 6 6 6 6 6 6 5 5 5 5 4 4 4 4 4 4 4 4 4 3 3 3 3 3 3 3 3 3 3 4 4 4 3 3 3 3 3 3 3 3 3
10 10 10 10 10 10 10 10 9 9 9 9 9 9 9 9 8 8 8 8 8 8 7 7 7 7 7 6 6 6 6 6 6 5 5 5 5 4 4 4 4 4 4 4 4 4 4 3 3 3 3 3 3 3 3 3 3 3 3 3 3 3 3 3 3 3 3 3 3
10 10 10 10 9 9 9 9 9 9 8 8 8 8 8 8 8 8 8 8 7 7 7 7 7 7 7 6 6 6 6 5 5 5 5 4 4 4 4 4 4 4 4 4 4 4 4 3 3 3 3 3 3 3 3 3 3 3 3 3 3 3 3 3 3 3 3 3 2
9 9 9 9 9 9 9 9 9 8 8 8 8 8 8 8 8 8 8 7 7 7 7 7 6 6 6 6 6 6 5 5 5 4 4 4 4 4 4 4 4 4 4 4 4 4 4 3 3 3 3 2 2 2 2 3 3 3 3 3 3 3 3 3 3 3 2 2 2
9 9 9 9 9 9 8 8 8 8 7 7 7 7 8 8 8 8 8 7 7 7 6 6 6 6 6 6 5 5 5 5 4 4 4 4 4 4 4 4 4 4 4 4 4 4 3 3 3 3 2 2 2 2 2 3 3 3 3 3 3 3 3 3 3 2 2 2 2
9 9 9 9 9 8 8 8 8 7 7 7 7 7 7 7 7 7 7 7 7 6 6 6 6 6 5 5 5 5 5 4 4 4 4 4 4 4 4 4 4 3 3 3 3 3 3 3 3 2 2 2 2 2 3 3 3 3 3 3 3 3 3 3 2 2 2 2 2
9 9 9 9 8 8 8 8 7 7 7 7 7 7 7 7 7 7 7 7 6 6 6 6 6 5 5 5 5 5 4 4 4 4 4 3 3 3 3 4 3 3 3 3 3 3 3 3 3 2 2 2 2 3 3 3 3 3 3 3 3 3 3 2 2 2 2 2 2
8 8 8 8 8 8 8 8 8 7 7 7 7 7 7 7 7 6 6 6 6 6 6 6 6 5 5 5 5 4 4 4 4 4 4 3 3 3 3 3 3 3 3 3 3 3 3 3 2 2 2 2 3 3 3 3 3 3 3 3 3 3 2 2 2 2 1 1 1
8 8 8 8 8 8 8 8 8 8 7 7 7 7 7 6 6 6 6 6 6 6 6 6 5 5 5 5 4 4 4 4 4 4 4 3 3 3 3 3 3 3 3 2 2 3 3 2 2 2 2 3 3 3 3 3 3 3 3 3 3 3 2 2 2 1 1 1 1
7 7 7 8 8 8 8 8 8 8 7 7 7 7 7 6 6 6 6 6 6 6 6 6 5 5 5 4 4 4 4 3 3 4 4 3 3 3 3 3 3 3 3 2 2 2 2 2 2 2 2 3 3 3 3 3 2 2 2 2 2 2 2 2 1 1 1 1 1
Height
779 780 781 781 780 780 782 784 786 788 789 790 790 790 790 789 788 789 791 794 795 795 796 797 796 797 798 799 799 799 799 798 798 798 798 799 799 800 801 802 802 803 804 804 805 806 807 808 809 810 812 813 816 817 818 818 818 818 818 818 818 818 818 818 819 819 819 819 819
777 778 778 779 779 779 781 783 785 787 788 789 789 789 789 789 787 788 790 794 795 796 796 797 796 796 797 798 799 799 799 799 799 799 798 799 799 799 800 801 801 802 803 804 804 805 806 807 809 811 814 816 818 818 817 817 818 818 818 817 817 817 817 817 817 818 818 818 819
774 775 775 776 776 777 779 782 784 786 787 787 788 789 789 788 787 788 790 793 794 795 796 796 795 794 795 796 798 799 799 799 799 799 799 799 799 799 799 800 801 801 802 803 803 804 807 809 812 814 815 817 817 817 817 817 817 817 817 816 816 816 816 816 816 817 817 817 818
773 773 773 773 774 775 778 781 784 785 785 786 787 788 787 787 786 788 790 791 793 794 794 794 793 793 794 795 797 798 799 799 800 800 800 799 799 799 799 799 800 801 802 802 803 804 807 811 813 814 815 815 816 816 816 816 816 816 815 815 815 815 815 815 815 815 816 816 816
772 772 772 772 773 775 778 781 784 785 785 786 786 786 787 787 788 789 790 791 792 792 792 792 792 792 792 793 795 797 799 800 800 800 799 799 798 798 798 798 799 800 801 802 803 804 806 809 812 813 813 814 815 815 815 815 814 814 814 813 814 814 814 814 814 814 814 814 815
770 770 770 771 773 775 777 780 783 784 785 785 785 786 787 788 789 789 789 790 790 791 791 791 791 791 791 792 794 797 800 801 800 799 799 798 797 797 797 797 798 799 801 802 803 804 805 807 809 810 811 812 813 813 813 813 813 812 812 812 811 812 812 812 812 813 813 813 813
768 768 769 770 773 774 776 779 781 783 784 784 785 785 786 787 788 788 788 788 789 789 790 790 790 791 791 791 794 796 798 799 799 798 797 797 796 796 796 796 797 799 801 802 803 804 805 806 806 808 809 810 811 811 811 811 811 811 811 810 810 809 810 810 811 811 812 812 812
766 766 767 768 771 773 775 777 779 781 783 784 784 784 785 787 788 788 788 787 787 788 789 789 790 791 792 793 794 795 797 797 797 797 796 796 795 795 795 795 797 799 801 803 804 805 806 806 806 807 808 810 810 809 809 809 809 810 810 810 809 809 809 809 809 810 810 810 811
764 765 765 766 768 771 773 775 777 779 781 782 783 783 784 785 786 787 786 786 786 787 788 790 791 792 793 794 795 796 796 797 796 796 795 794 794 794 794 794 798 800 802 803 805 806 807 807 806 807 807 809 809 809 808 807 808 809 810 809 809 808 808 808 809 809 809 810 810
763 764 764 764 766 768 771 773 775 776 778 779 780 782 783 784 784 784 784 784 785 787 788 790 792 793 794 794 795 795 796 796 795 794 794 793 793 793 794 795 799 802 803 804 805 806 807 806 806 806 807 808 808 807 806 806 806 807 808 809 809 808 808 807 808 809 809 810 810
763 763 763 763 764 766 769 771 773 775 777 779 780 781 782 783 783 784 784 784 785 786 788 789 791 792 794 794 795 795 795 795 794 794 793 793 793 793 794 797 800 803 804 805 805 806 806 805 804 805 805 806 806 805 804 804 804 804 805 807 807 807 807 807 808 808 809 809 809
763 764 764 764 764 765 767 769 771 773 775 777 779 781 782 783 783 783 784 784 785 786 787 788 790 791 793 794 794 794 794 794 794 793 793 793 793 794 795 797 800 803 804 806 806 806 805 804 803 804 804 804 804 803 802 802 802 803 804 805 806 806 806 806 807 807 808 808 808
763 763 764 764 765 765 766 767 768 769 771 773 776 778 780 782 782 782 782 783 784 784 785 786 788 789 791 792 793 794 794 794 794 793 793 793 793 794 794 796 799 801 803 805 805 804 803 802 802 802 801 801 801 801 801 801 801 802 803 805 805 805 805 806 806 806 806 807 807
762 762 763 764 764 765 766 766 767 768 768 769 771 774 777 779 780 779 779 779 780 781 782 783 786 788 789 791 792 793 793 793 793 793 793 793 793 793 794 795 797 799 801 802 803 802 802 801 800 800 799 799 800 800 799 799 799 801 803 804 805 805 804 805 805 805 805 806 806
760 761 762 762 763 764 764 765 765 766 767 768 769 772 774 776 777 777 777 777 777 777 777 779 782 785 787 789 790 791 792 792 792 792 793 793 793 793 793 794 796 797 799 800 800 800 800 799 799 799 799 799 799 798 798 797 799 801 803 804 804 804 804 804 804 805 805 805 805
759 760 760 761 761 762 762 763 763 764 765 766 768 769 772 774 774 775 775 776 776 775 775 775 778 782 784 787 789 790 791 791 791 791 791 792 792 793 793 794 795 796 798 798 799 799 799 798 798 798 798 798 797 796 796 797 799 801 803 803 803 803 803 804 804 804 805 805 805
758 759 759 760 760 761 761 761 761 762 763 764 765 767 769 771 772 773 773 774 775 775 775 775 777 779 782 785 787 788 789 789 790 790 790 791 792 792 793 794 794 795 797 797 798 797 797 797 797 797 797 796 796 796 797 798 800 801 801 801 802 802 803 803 804 804 804 804 804
758 758 759 759 759 760 760 760 760 760 761 762 764 766 767 769 770 770 771 772 773 774 775 776 777 779 781 784 785 787 788 789 789 789 790 790 791 792 792 793 794 795 796 796 796 796 796 796 795 795 795 795 796 797 798 799 799 800 800 801 801 802 802 803 803 803 803 803 803
757 758 758 758 759 759 759 759 759 760 760 761 763 764 765 767 768 769 769 770 771 772 774 775 777 778 780 782 784 785 786 787 788 789 789 790 790 791 791 792 793 794 795 795 795 795 795 794 794 794 795 795 796 797 798 798 799 799 800 800 801 801 801 802 802 802 802 802 802
756 757 757 757 758 758 759 759 759 759 760 761 762 763 764 765 766 767 768 769 770 771 772 774 775 777 779 780 782 784 785 786 787 788 789 789 789 790 791 792 793 793 794 794 794 794 794 794 794 794 795 796 796 797 797 797 798 798 799 799 800 800 800 801 801 801 801 800 800
756 756 756 757 757 757 758 758 759 759 760 761 761 762 763 764 765 766 767 768 769 770 772 773 775 777 778 780 781 782 784 785 786 787 788 788 789 789 790 791 792 792 793 793 793 793 793 794 794 794 795 796 796 796 797 797 797 798 798 799 799 799 799 799 799 799 799 799 799
755 755 756 756 756 757 757 758 758 759 759 760 761 762 763 763 764 765 766 768 769 770 772 773 775 776 778 779 780 782 783 784 785 786 787 788 788 789 790 790 791 791 792 792 792 793 793 794 794 794 795 795 796 796 796 796 797 797 798 798 798 799 799 799 799 798 798 798 798
755 755 755 756 756 757 757 758 758 759 759 760 760 761 762 763 764 765 766 767 769 770 771 773 774 776 777 779 780 781 782 783 784 786 787 787 788 789 789 790 790 791 791 791 792 792 793 793 794 794 794 795 795 795 796 796 796 797 797 797 797 797 798 798 798 798 797 797 797
754 755 755 756 756 756 757 757 758 758 759 759 760 761 762 762 763 764 766 767 769 770 771 773 774 775 777 778 779 781 782 783 784 785 786 787 788 789 789 789 790 790 791 791 791 792 792 792 793 793 794 794 794 795 795 795 795 796 796 796 796 796 797 797 797 797 797 797 797
754 755 755 756 756 756 757 757 758 758 759 759 760 761 762 762 763 764 766 767 768 770 771 772 774 775 777 778 779 780 781 782 783 784 785 786 787 788 789 789 789 790 790 790 790 791 791 792 792 792 793 793 793 794 794 794 794 795 795 795 795 795 796 796 796 796 796 796 796
754 755 755 756 756 757 757 758 758 759 759 760 760 761 762 763 764 764 766 767 768 769 771 772 774 775 776 777 779 780 781 782 783 784 785 786 787 787 788 788 789 789 789 789 789 790 790 791 791 791 792 792 792 793 793 793 794 794 794 794 794 795 795 795 795 795 795 795 795
754 755 755 756 756 757 758 758 759 759 760 760 761 761 762 763 764 765 766 767 768 769 771 772 773 774 775 777 778 779 781 782 783 784 784 785 786 786 787 788 788 788 788 789 789 789 789 790 790 791 791 791 791 791 792 792 793 793 793 794 794 794 794 794 794 794 794 794 795
754 755 755 756 756 757 758 758 759 759 760 760 761 762 762 763 764 765 766 767 768 769 770 772 773 774 775 776 778 779 780 781 782 783 784 784 785 786 786 787 787 788 788 788 788 789 789 789 789 790 790 790 790 790 791 791 792 792 793 793 793 793 793 793 793 793 794 794 794
754 754 755 755 756 757 757 758 759 759 760 760 761 762 763 763 764 765 766 767 768 769 770 771 772 774 775 776 777 779 780 781 781 782 783 784 784 785 786 786 787 787 787 787 788 788 788 788 789 789 789 789 789 789 790 790 791 792 792 792 793 793 793 793 793 793 793 793 794
754 754 754 755 756 756 757 758 758 759 759 760 761 762 763 763 764 765 766 767 768 769 770 771 772 773 774 776 777 778 779 780 781 782 782 783 784 785 785 786 786 786 786 786 787 787 787 787 788 788 788 788 789 789 789 790 790 791 791 792 792 792 792 792 792 792 792 792 793
753 754 754 755 755 756 756 757 758 758 759 760 761 762 762 763 764 765 766 767 768 769 770 771 772 773 774 776 777 778 779 780 780 781 782 783 784 784 785 785 785 786 786 786 786 786 786 786 786 787 787 787 788 788 789 789 790 790 790 791 791 791 791 791 791 791 791 791 792
753 753 754 754 755 755 756 756 757 758 759 760 760 761 762 763 764 765 766 767 768 769 770 771 772 773 774 776 777 778 779 779 780 781 781 782 783 784 784 784 785 785 785 784 784 785 785 785 785 785 786 787 787 788 788 789 789 789 790 790 790 790 790 790 790 790 790 790 791
752 753 753 754 754 755 755 756 757 758 759 759 760 761 762 763 764 765 766 767 768 769 770 771 772 773 774 775 776 777 778 779 779 780 781 782 782 783 783 784 784 784 784 784 784 784 784 784 784 785 785 786 787 787 787 788 788 789 789 789 789 789 789 789 789 789 789 789 790
751 752 753 753 754 754 755 756 757 758 759 759 760 761 762 763 764 765 766 767 768 769 770 771 772 773 774 775 776 776 777 778 779 779 780 781 781 782 782 782 783 783 783 782 782 783 783 783 784 784 785 786 786 786 787 787 787 788 788 788 788 788 788 788 788 788 788 789 789
751 751 752 753 754 754 755 755 756 757 758 759 760 761 762 763 764 764 765 767 768 769 770 771 772 773 774 774 775 776 776 777 778 779 779 779 780 780 781 781 781 781 781 781 781 782 782 783 783 784 784 785 785 785 786 786 786 786 787 787 787 787 787 787 787 787 787 788 788
750 751 751 752 753 754 754 755 756 757 758 759 759 760 761 762 763 764 765 766 767 768 769 770 771 772 773 774 774 775 775 776 777 777 778 779 779 779 779 780 780 780 780 780 780 781 781 782 783 783 784 784 784 784 784 785 785 785 785 786 786 786 786 786 786 786 787 787 787
749 750 751 751 752 753 754 754 755 756 757 758 758 759 760 761 763 764 765 766 767 767 768 769 770 771 772 773 773 774 775 775 776 776 777 777 777 778 778 779 779 779 779 779 780 780 781 781 782 783 783 783 783 783 784 784 784 784 784 784 785 785 785 785 785 786 786 786 787
749 749 750 751 751 752 753 754 754 755 756 757 758 758 759 760 762 763 764 765 765 766 767 768 769 770 771 772 773 773 774 774 775 775 776 776 776 777 777 778 778 778 779 779 779 779 780 780 781 782 782 781 782 782 782 783 783 783 783 784 784 784 784 784 785 785 786 786 787
748 749 749 750 750 751 752 753 753 754 755 756 757 758 759 760 761 762 763 764 764 765 766 767 768 769 770 771 772 772 773 774 774 774 774 775 775 775 776 776 777 777 778 778 778 779 779 779 780 780 780 780 780 781 781 781 782 782 782 783 783 783 784 784 784 784 785 786 786
747 748 749 749 750 750 751 751 752 753 754 755 756 757 758 759 760 761 762 763 764 765 765 766 767 768 769 770 771 771 772 773 773 773 773 774 774 774 775 775 776 776 777 777 777 778 778 778 779 779 779 779 779 780 780 780 781 781 781 782 782 782 783 783 784 784 784 785 786
746 747 748 748 749 749 750 750 751 752 753 754 755 756 757 758 759 760 761 762 763 764 765 766 767 768 769 769 770 770 771 772 772 772 772 773 773 774 774 774 775 775 776 776 776 776 777 777 778 778 778 778 779 779 779 779 780 780 780 781 781 781 782 782 783 783 784 784 785
Wind_Speed
20 20 21 22 22 19 14 11 9 9 10 10 11 11 10 10 8 8 10 13 15 16 15 13 11 10 12 14 14 13 11 10 8 8 9 11 13 14 15 16 17 18 19 19 20 20 20 18 16 15 13 12 15 14 14 15 15 15 16 17 18 19 19 20 20 20 19 19 18
22 22 23 25 23 18 13 10 8 8 8 9 10 10 9 7 4 2 3 9 12 14 12 10 8 8 11 14 15 15 14 13 11 9 9 10 12 13 14 14 15 16 17 18 19 19 17 14 12 10 11 13 16 16 16 16 15 14 13 13 14 15 16 16 16 17 17 17 16
24 24 25 26 23 18 12 9 9 8 8 8 9 9 9 7 3 2 3 9 14 15 13 9 7 7 10 13 15 16 15 14 13 12 12 12 12 13 13 13 13 14 15 16 17 16 14 13 12 11 12 17 19 19 18 18 16 15 14 13 14 14 14 15 15 16 16 17 17
25 26 26 26 23 18 13 10 9 7 5 4 5 5 5 5 4 5 8 12 15 16 15 11 9 8 10 13 15 16 15 14 15 15 15 14 13 13 12 12 11 12 13 14 13 13 13 14 14 14 15 18 19 19 19 18 18 17 16 15 15 15 16 16 17 18 19 20 21
24 25 25 24 21 17 14 12 10 8 5 5 6 6 6 5 6 10 14 16 18 18 16 14 12 11 11 11 14 16 17 17 16 17 17 16 15 14 12 10 9 9 11 12 12 11 12 13 15 16 18 18 19 19 19 19 18 18 18 18 18 18 18 19 20 21 22 22 22
23 24 24 22 19 16 15 14 13 11 10 10 10 11 10 9 10 13 16 18 19 19 18 16 15 14 12 10 13 17 20 20 18 17 16 16 15 14 11 8 7 7 8 10 11 11 12 15 17 18 19 19 19 19 19 19 19 19 19 20 20 20 21 21 21 22 22 22 21
25 25 24 21 18 16 16 15 15 14 14 14 15 15 15 14 15 16 17 17 19 20 20 19 17 15 14 13 15 19 21 21 18 15 15 15 15 13 10 7 5 5 6 7 9 11 13 16 19 19 19 19 19 19 18 18 19 20 20 21 22 22 22 21 21 21 20 19 18
26 26 25 22 19 17 17 16 16 15 15 16 17 18 17 16 16 16 16 16 18 19 20 19 17 16 15 15 16 18 19 18 15 13 12 12 13 11 9 6 5 6 7 7 7 9 12 15 17 18 19 19 19 17 17 17 18 20 21 22 22 21 21 19 18 17 15 13 12
25 25 25 23 21 19 18 17 16 17 18 19 19 19 17 15 15 16 17 17 18 19 19 18 16 14 13 13 14 15 15 14 12 10 9 9 9 9 9 9 10 12 12 10 9 9 10 11 13 15 16 17 16 15 15 16 17 19 20 21 19 18 16 14 12 10 9 8 8
24 25 25 24 22 20 19 18 18 18 20 20 20 19 17 16 17 18 18 18 19 19 17 15 13 11 11 11 12 13 13 12 10 8 6 6 7 7 8 10 14 16 17 15 13 12 11 10 10 11 12 14 14 14 14 14 14 16 17 18 15 12 9 8 6 6 6 7 8
23 24 24 24 23 21 19 19 19 19 19 19 19 18 17 17 17 17 18 18 18 17 16 14 11 9 9 10 12 13 13 11 8 7 6 6 6 6 8 12 16 17 17 16 16 15 14 12 10 11 13 14 14 12 11 10 9 9 10 10 9 7 6 6 7 7 7 8 9
22 23 23 24 23 21 20 20 20 20 20 20 21 22 22 20 19 17 17 17 17 16 15 13 10 7 7 9 11 12 12 10 9 7 7 7 7 8 9 12 14 14 15 16 16 16 15 13 12 12 13 13 12 10 8 7 6 5 5 5 5 6 6 7 7 8 8 8 8
21 22 22 23 22 22 22 22 22 23 22 22 22 24 25 24 22 20 19 19 19 19 17 14 10 8 7 8 10 12 12 11 10 9 9 9 9 9 10 11 12 13 15 16 16 16 14 13 12 12 12 11 9 8 7 6 6 5 4 4 5 5 6 6 7 7 7 7 7
18 20 21 21 21 21 21 22 24 25 26 25 25 27 28 27 25 24 24 24 23 21 19 16 14 13 12 11 11 12 12 11 11 10 10 10 10 10 10 10 11 13 15 15 15 14 13 13 12 11 10 8 6 6 5 5 6 6 5 5 6 6 6 6 6 6 6 7 7
16 17 18 18 18 19 19 21 23 25 27 27 28 29 30 28 26 26 27 27 27 24 21 19 18 18 17 16 15 15 14 13 12 11 11 12 12 12 12 12 13 14 14 14 13 12 12 12 10 9 7 6 6 5 4 4 4 5 6 7 7 7 7 7 6 6 6 6 7
14 15 15 16 17 17 18 19 21 24 26 27 28 29 29 27 26 27 28 28 27 25 23 22 22 21 20 19 18 17 16 14 13 12 12 14 14 14 14 14 15 14 13 12 12 11 10 10 8 7 6 6 5 5 4 4 5 6 7 8 8 8 8 9 8 8 7 7 8
12 13 14 15 16 17 17 18 20 22 24 26 27 27 27 25 26 26 27 27 26 24 21 21 21 20 20 20 20 19 17 16 14 14 15 16 17 17 16 15 14 13 12 11 11 10 10 9 8 8 7 6 6 6 6 7 8 8 9 9 10 11 11 12 12 12 12 11 11
12 13 14 15 16 17 17 18 19 21 23 24 25 25 25 24 25 25 25 25 25 22 20 19 19 19 20 21 21 21 19 18 17 17 18 19 19 17 15 13 12 11 11 11 10 9 8 7 7 7 6 6 7 7 8 9 9 9 10 10 11 12 13 14 14 15 15 14 14
12 13 14 15 16 16 17 18 20 21 22 23 24 24 24 24 23 23 23 23 23 22 21 20 20 21 22 22 22 21 20 19 19 19 19 19 17 14 12 12 12 13 12 11 9 7 6 5 5 6 6 7 7 7 8 8 9 10 10 10 11 11 12 13 13 14 14 15 15
11 13 13 14 15 16 17 19 20 21 22 23 23 23 23 23 22 22 22 22 22 22 22 22 22 22 22 22 21 20 19 18 18 17 16 15 13 12 12 13 13 12 11 9 7 6 5 5 6 6 6 6 6 7 7 8 9 10 10 10 10 11 11 12 12 12 12 12 13
11 12 12 13 14 16 17 18 19 20 21 22 22 22 21 21 20 20 20 20 21 21 21 21 21 21 20 20 20 19 17 16 14 13 12 12 12 13 13 13 11 9 8 7 7 7 7 7 7 7 7 7 7 7 8 9 9 9 10 10 11 11 12 13 13 12 11 9 9
10 11 11 12 13 14 15 16 17 18 18 19 19 18 18 18 18 18 18 18 19 19 19 19 19 18 18 19 18 17 16 14 12 12 12 13 13 13 12 11 9 8 7 7 7 7 7 7 8 8 8 8 8 8 8 9 9 10 10 11 12 12 12 13 12 11 9 8 7
9 10 11 11 12 13 14 14 15 15 15 15 15 15 15 15 15 15 15 16 17 17 17 17 17 17 17 16 16 15 14 14 14 14 14 14 13 13 12 10 9 8 8 8 8 8 8 8 8 8 9 9 9 9 10 10 10 11 11 12 12 12 12 12 11 9 8 7 7
9 9 10 10 11 12 12 13 13 13 13 13 12 12 12 13 13 14 15 15 16 17 17 16 16 15 15 14 14 13 14 15 15 15 15 14 13 12 12 11 10 9 8 8 7 8 8 8 8 8 8 9 9 10 10 10 11 11 11 11 11 11 11 10 9 8 7 6 7
8 9 9 10 11 11 11 11 11 11 11 11 11 11 12 13 14 15 15 16 17 17 17 16 15 14 14 13 13 13 13 14 15 15 15 14 13 12 12 11 10 9 8 8 7 7 7 7 7 7 7 8 8 8 8 8 8 8 9 9 9 9 9 8 8 7 6 6 7
8 8 9 9 10 11 11 11 11 11 11 11 11 12 13 14 15 16 17 17 17 17 17 16 15 15 14 14 14 14 13 13 14 14 13 12 12 11 10 9 8 8 7 7 7 7 7 6 6 7 7 7 7 7 7 6 6 6 7 7 7 7 7 7 6 6 6 6 6
8 8 9 9 10 10 11 11 11 11 11 11 12 14 15 16 16 17 17 17 17 17 17 16 15 15 15 15 15 14 14 13 13 12 11 11 10 9 8 8 7 7 7 7 7 7 7 6 5 5 6 7 7 7 6 6 5 5 5 6 6 6 7 7 6 6 6 6 6
9 9 9 9 10 10 11 11 11 11 12 13 14 15 16 17 17 17 17 17 17 17 17 16 15 15 15 15 15 14 14 13 12 12 11 10 10 9 9 8 8 8 8 8 8 8 7 7 6 5 6 6 7 7 6 6 5 5 5 6 6 6 7 7 7 7 7 7 7
10 10 10 10 10 11 11 11 12 12 13 14 15 17 17 17 17 17 17 17 16 16 16 17 16 15 15 15 15 14 13 13 13 12 12 11 10 10 9 9 9 9 9 9 9 9 8 7 6 5 5 5 6 6 6 6 6 6 6 6 6 6 6 7 7 7 7 8 8
11 11 10 11 11 11 12 12 12 13 14 15 17 18 18 18 17 17 17 16 16 15 16 16 16 16 15 15 14 14 13 13 12 12 12 11 11 11 10 10 10 10 9 9 9 8 7 6 6 5 4 4 5 6 6 6 7 7 7 6 6 6 6 7 7 7 7 7 8
12 12 11 11 11 12 12 12 13 14 15 16 18 18 18 18 17 17 17 16 15 15 15 16 16 16 15 14 14 14 13 13 12 12 11 11 11 11 11 10 10 9 9 8 8 8 7 6 5 5 4 4 5 6 7 7 7 8 7 7 6 6 7 7 7 7 7 7 7
13 13 12 12 12 12 13 13 14 15 16 17 18 18 18 18 17 17 16 16 15 15 15 16 16 16 15 15 14 14 13 13 12 12 11 11 11 11 11 10 10 9 9 8 8 8 7 6 6 5 5 5 6 7 8 8 8 8 8 7 7 6 6 7 7 6 6 6 6
14 14 13 13 13 13 13 14 15 16 17 18 18 18 18 18 17 17 17 16 16 15 15 16 16 16 16 15 15 14 13 12 11 11 11 11 11 11 11 10 10 9 9 8 8 8 8 7 6 6 6 5 6 7 8 8 8 8 7 7 6 6 6 6 6 6 5 4 4
15 15 14 14 14 14 14 15 15 16 17 18 18 18 18 18 18 18 18 17 17 16 15 15 15 15 15 14 13 12 12 11 11 11 11 11 11 11 11 10 9 9 8 8 9 9 9 8 7 6 6 6 7 8 8 8 8 7 7 6 6 6 6 6 6 5 4 3 3
17 16 16 15 15 15 15 15 16 17 18 19 19 19 19 19 19 19 18 18 17 16 15 14 14 14 13 12 12 11 11 11 11 11 11 11 11 11 11 10 9 8 8 9 9 9 9 9 8 7 6 7 8 9 9 8 7 7 6 6 6 5 6 5 5 3 2 2 2
18 17 17 17 16 16 16 16 17 18 19 20 20 20 20 20 19 19 18 18 17 16 15 15 14 14 13 13 12 11 11 11 11 11 11 12 12 11 10 9 8 8 8 9 9 9 10 10 9 8 7 8 9 9 9 8 7 6 6 6 5 5 5 5 3 2 2 2 2
19 18 18 17 17 17 17 17 18 19 20 20 21 21 21 20 20 19 19 18 17 16 16 15 15 14 14 13 12 12 11 10 11 11 12 12 12 11 10 8 7 8 8 9 9 9 10 10 9 8 8 10 10 9 8 7 7 6 6 6 5 5 4 4 2 2 2 3 3
19 19 18 18 18 18 18 18 18 19 20 21 21 21 21 21 20 20 19 18 18 17 16 16 15 15 14 13 12 12 11 10 11 11 12 12 11 10 9 8 7 8 8 9 9 9 10 9 9 8 9 10 10 9 8 7 7 7 7 6 5 4 4 3 2 3 3 4 4
19 19 19 18 18 18 18 18 19 20 20 21 21 21 21 21 21 20 19 18 18 17 17 16 16 15 14 13 12 11 10 10 10 11 12 12 11 10 9 8 8 8 9 9 10 10 9 9 8 8 10 10 9 8 7 7 7 7 7 6 5 4 3 3 3 4 4 5 5
19 19 19 19 19 19 19 19 19 20 20 21 22 22 22 22 21 20 19 18 18 17 17 16 16 15 14 13 12 10 9 9 9 10 10 11 10 10 9 9 9 9 9 10 10 10 9 8 7 9 10 10 9 8 7 7 8 8 7 6 5 4 4 4 4 5 6 6 6
19 19 19 19 19 19 19 19 19 19 20 21 22 22 22 21 21 21 20 19 19 18 17 16 15 14 13 11 10 9 8 8 8 9 9 9 9 9 9 9 9 9 10 10 10 10 9 7 8 9 10 9 8 8 8 8 9 8 7 6 5 5 5 5 6 7 7 8 7
Wind_Direction
227 227 225 222 218 218 223 234 245 256 264 267 266 266 264 261 253 252 261 271 274 275 276 275 282 282 275 270 269 265 259 253 249 246 239 231 225 223 222 223 225 227 228 229 230 231 230 229 227 229 232 233 233 250 275 286 285 276 266 259 256 255 255 256 258 259 260 259 257
230 227 225 223 223 224 227 238 251 264 271 274 274 275 274 270 256 234 252 265 270 275 277 280 285 280 273 271 270 268 265 263 261 259 252 239 227 221 218 217 219 222 224 227 230 231 230 229 230 230 229 229 238 258 280 288 286 281 274 268 264 262 261 262 262 262 260 258 256
232 229 226 225 226 227 229 238 254 265 270 272 277 281 283 280 255 198 234 259 268 271 273 275 281 278 273 272 269 266 264 265 264 262 257 249 235 224 219 217 218 220 222 225 229 230 231 233 235 229 224 228 241 259 274 281 281 277 274 271 268 266 266 266 266 266 265 263 261
229 227 226 225 227 227 228 235 247 255 259 256 257 259 262 263 238 224 236 251 259 261 262 264 270 275 275 272 271 268 265 262 258 255 252 248 239 230 225 225 226 227 227 228 226 225 227 231 232 229 227 232 244 258 269 274 274 272 269 267 267 268 268 269 269 270 269 267 265
224 225 226 226 228 229 230 232 236 235 220 189 171 166 170 190 213 227 237 246 252 255 255 257 261 266 271 272 271 265 259 256 254 250 246 242 236 231 228 231 236 239 238 234 227 220 214 212 219 225 229 233 244 255 264 267 268 268 267 267 268 270 271 272 272 272 271 268 267
227 228 228 228 231 233 233 230 229 227 216 196 184 177 177 185 203 221 233 244 252 256 258 258 257 256 256 256 253 250 251 255 255 249 240 234 229 227 226 228 238 247 248 242 233 221 207 201 209 220 230 235 242 249 257 261 264 266 269 271 273 275 277 277 277 276 274 272 270
236 235 234 233 235 236 237 236 235 234 227 215 205 200 201 207 216 224 232 242 254 262 265 263 257 250 243 238 234 238 244 249 248 241 232 227 224 222 220 222 240 261 265 257 241 228 217 210 213 219 230 243 249 252 255 260 265 269 272 275 276 279 280 280 279 278 276 273 271
242 243 242 241 239 238 239 240 241 242 238 227 216 212 214 222 232 242 247 252 260 267 270 268 260 250 242 238 236 238 241 243 240 235 229 225 224 223 225 238 267 282 285 279 259 241 229 223 223 228 237 247 253 257 260 264 268 272 275 277 278 280 280 280 279 277 276 275 274
242 244 245 243 240 239 239 239 238 241 240 234 225 221 223 235 251 262 266 267 269 271 272 267 258 250 247 248 247 243 240 238 237 235 232 227 227 228 234 248 267 276 281 280 272 260 250 242 238 239 243 250 255 259 263 266 267 269 272 277 281 281 280 279 278 278 279 279 281
240 242 243 241 240 238 237 239 238 237 235 232 228 228 235 248 260 268 271 271 271 268 263 256 250 250 254 256 249 242 236 234 236 240 240 235 231 225 225 233 249 263 270 271 270 270 269 263 254 249 249 253 256 260 264 267 267 267 270 275 279 283 283 281 276 273 273 275 278
240 241 240 239 237 232 230 236 239 241 241 240 239 243 250 255 258 261 263 264 260 254 247 243 243 249 254 251 242 236 234 236 242 247 247 241 232 221 215 221 235 248 258 259 263 269 272 269 260 254 253 255 258 261 267 273 274 273 272 274 276 279 281 278 274 271 271 273 277
240 240 239 237 234 230 226 226 231 236 241 247 251 255 256 253 251 251 254 254 248 241 237 238 244 251 250 242 235 233 235 240 247 251 247 237 224 212 207 211 221 231 241 246 256 266 272 270 265 260 258 259 262 265 269 274 281 286 287 284 282 281 281 279 277 274 274 276 280
243 241 239 237 235 233 230 227 225 223 224 229 237 243 246 244 243 243 242 241 240 237 235 239 249 257 251 238 233 233 236 239 243 246 243 235 222 211 205 207 214 224 236 247 257 266 272 274 272 270 267 264 262 262 263 267 277 286 288 282 274 271 270 270 269 269 269 271 274
250 247 245 243 241 239 237 233 229 223 219 219 224 231 235 235 237 234 230 227 226 227 229 234 244 252 253 246 240 239 239 239 238 239 241 240 234 228 224 227 234 242 248 253 259 264 268 270 272 271 266 256 246 244 251 263 272 271 262 251 248 247 248 251 256 259 260 262 262
256 255 254 252 249 247 243 238 233 228 226 225 226 228 229 229 229 227 224 221 219 217 216 219 227 236 244 247 245 243 242 239 235 235 240 246 248 248 250 255 260 261 258 254 252 253 256 258 259 255 242 223 214 221 238 252 250 242 237 237 239 241 244 249 255 258 258 255 255
257 257 256 254 252 250 246 240 235 232 230 229 227 225 224 223 221 219 218 217 217 215 211 209 213 220 230 238 240 240 239 239 237 238 243 251 257 261 265 268 268 264 255 244 237 234 234 234 226 212 201 201 209 219 223 217 213 217 227 237 245 251 255 258 261 263 262 259 258
255 254 252 251 249 247 244 239 235 231 227 225 222 219 217 216 214 211 210 211 214 213 210 207 208 214 223 232 236 238 240 242 245 248 251 256 260 264 266 265 261 251 237 225 218 216 213 205 192 186 193 211 224 222 214 210 215 224 234 244 251 256 259 259 260 260 261 262 262
254 252 250 248 246 244 240 235 231 226 221 217 214 211 210 209 207 207 206 208 210 212 212 211 214 220 227 234 238 241 243 246 249 252 254 257 259 259 257 250 238 223 212 207 208 210 208 198 191 195 208 221 226 223 221 224 233 241 248 254 257 258 257 256 256 257 258 260 260
253 251 248 245 242 238 234 229 225 220 216 212 209 207 206 206 206 206 206 207 209 211 214 216 220 226 231 235 239 241 243 244 246 248 250 251 250 244 233 218 205 198 196 197 199 201 201 201 208 218 225 227 229 233 238 244 250 255 260 263 265 264 263 261 261 261 261 260 258
251 248 244 240 235 231 227 223 220 217 213 211 209 209 208 208 208 208 209 209 211 214 217 220 225 229 233 235 237 238 238 239 239 239 239 236 227 213 199 192 190 188 186 182 181 183 191 201 213 222 228 231 236 243 251 257 260 263 266 270 274 276 278 279 281 281 277 271 263
245 242 239 235 230 225 222 220 218 216 214 213 213 213 213 212 212 212 213 214 215 217 220 224 228 231 233 234 234 233 232 231 227 222 216 207 194 185 182 183 184 183 178 176 180 187 195 202 211 219 226 231 237 244 253 261 268 274 279 284 288 291 294 298 300 300 295 286 276
241 239 236 232 228 224 222 220 219 218 217 217 216 216 216 215 215 215 216 216 217 218 220 223 226 229 230 231 230 227 222 214 203 194 187 181 174 172 174 178 179 181 183 187 193 199 205 211 218 226 232 236 241 249 259 270 280 287 293 296 299 301 304 308 311 309 304 299 294
244 240 237 232 230 226 224 222 220 219 218 218 217 216 215 214 214 213 212 211 212 212 213 215 217 220 223 224 222 216 206 193 181 174 171 168 166 168 171 176 180 186 193 199 204 210 215 222 229 237 244 250 256 263 272 280 287 293 297 301 302 303 305 310 313 311 305 298 293
252 247 242 238 233 228 225 223 220 218 217 216 214 212 211 209 206 204 202 201 201 202 203 204 206 208 210 209 205 199 190 180 172 168 166 166 167 170 175 181 187 193 199 206 213 220 226 233 241 249 258 266 271 276 280 285 289 294 298 301 302 303 304 306 305 300 291 284 282
260 255 249 242 235 230 226 222 219 216 214 211 209 206 203 200 196 193 192 191 192 193 194 194 195 194 193 191 187 184 180 175 170 168 167 170 175 181 188 194 198 203 210 216 224 233 242 252 260 267 272 278 283 285 286 288 291 295 298 300 301 301 300 297 293 287 280 277 280
263 258 251 244 237 231 225 221 218 215 212 207 203 198 194 191 188 186 185 185 186 186 186 186 185 185 183 181 178 176 175 173 172 172 174 179 185 193 200 205 209 213 217 226 236 248 259 267 272 277 283 288 291 292 293 296 296 296 297 299 299 296 292 287 282 278 275 274 281
257 251 246 243 237 230 226 223 221 217 212 206 199 193 189 186 184 183 182 182 182 182 181 180 180 181 180 178 175 174 173 173 175 180 185 191 195 199 204 210 214 217 223 233 245 254 259 259 257 264 275 284 286 289 292 295 294 292 294 297 295 291 286 281 278 277 275 274 277
249 245 241 238 233 229 226 226 223 217 211 205 198 192 188 185 183 182 181 182 182 182 180 177 179 181 180 176 175 175 176 176 179 185 193 198 201 203 207 212 217 222 229 239 246 249 247 241 233 235 250 264 272 279 285 287 286 286 289 293 294 290 285 282 281 280 280 278 276
247 242 238 234 230 228 226 224 221 216 210 203 197 192 188 186 185 184 184 185 186 185 181 176 178 179 177 175 176 177 179 181 184 189 195 200 204 207 212 218 225 231 237 241 243 241 237 232 228 227 235 250 262 269 273 275 276 277 280 286 291 289 285 283 282 282 283 283 280
246 241 237 234 231 229 226 223 220 215 209 203 197 193 191 189 188 187 187 188 190 188 182 177 175 175 175 175 177 180 183 186 190 195 200 205 209 214 219 226 231 234 237 237 234 230 226 225 227 227 227 236 249 255 258 261 264 267 271 277 283 286 286 287 286 287 287 287 287
245 241 238 235 233 230 226 223 219 213 207 202 198 195 193 192 191 190 189 189 190 187 182 176 173 173 175 177 180 184 187 190 194 200 205 210 214 218 222 226 228 228 227 226 225 222 220 221 225 224 223 228 238 243 247 252 257 261 263 267 274 282 287 291 291 291 291 291 292
243 240 238 235 233 231 228 223 217 211 206 202 199 197 196 195 194 192 191 190 188 184 179 175 174 176 179 182 185 188 192 195 199 204 209 214 217 220 222 222 221 219 220 221 222 222 222 225 227 221 215 219 234 240 244 249 255 258 259 261 267 276 285 291 293 292 291 290 291
241 239 236 234 233 231 228 224 217 211 206 202 201 199 198 197 195 192 190 189 187 184 181 179 180 181 184 186 189 192 196 200 204 208 212 215 218 219 220 218 216 216 218 221 223 224 225 227 229 221 213 218 233 241 246 250 254 256 255 256 262 273 286 294 297 295 290 286 282
238 235 233 232 231 230 228 223 217 211 206 203 202 201 200 198 196 193 190 189 188 186 185 184 185 186 189 191 194 197 201 204 208 211 214 216 219 220 219 217 215 217 221 224 226 227 227 227 226 219 214 221 232 239 244 247 251 252 253 253 261 275 289 297 298 293 285 274 266
235 233 231 229 229 228 226 222 217 211 207 204 203 203 202 201 199 196 193 190 188 187 187 188 188 190 192 195 199 203 205 208 210 212 215 218 220 221 220 217 217 219 224 226 227 227 227 227 223 217 218 230 235 238 240 243 247 250 251 252 262 277 291 298 296 286 268 244 235
235 232 229 227 227 226 225 222 217 212 208 207 205 204 204 203 201 199 196 192 189 188 189 190 191 192 194 196 200 204 208 211 212 214 217 221 223 223 222 219 218 220 223 225 226 226 227 226 221 215 217 229 236 238 239 241 246 249 249 251 262 278 291 294 287 265 224 204 205
235 232 229 227 226 225 224 222 218 213 211 210 209 207 205 203 202 200 198 195 193 192 192 193 194 195 196 198 201 205 210 215 219 221 223 225 225 224 223 220 217 217 219 221 222 223 225 225 218 216 222 228 232 235 238 242 246 247 247 250 262 277 287 286 266 219 191 188 194
236 232 229 227 225 225 224 222 219 216 214 213 212 211 208 205 203 201 200 199 198 197 196 196 197 197 198 200 204 209 215 222 225 227 228 228 227 225 223 220 215 212 212 214 217 220 222 221 213 215 225 230 232 233 237 242 245 244 243 246 258 270 276 269 232 194 182 183 191
237 233 230 228 226 226 225 224 223 221 218 216 214 213 211 207 205 204 203 203 203 203 202 200 199 200 201 204 208 214 220 224 228 230 229 227 226 224 223 221 215 210 208 209 213 216 217 215 215 220 226 229 231 232 235 239 240 238 236 240 249 258 258 243 210 187 181 184 190
240 236 232 229 228 228 228 228 227 225 222 219 217 215 213 210 208 207 206 205 206 207 206 205 204 205 206 207 210 215 219 225 230 231 229 226 225 224 225 224 218 212 208 208 210 213 213 211 216 224 227 228 229 231 233 233 232 229 228 233 240 243 237 222 202 190 186 187 190
242 238 234 232 231 230 231 231 230 228 225 223 221 220 218 214 211 208 207 207 207 208 209 210 210 210 209 208 210 214 220 227 235 236 232 227 225 225 227 228 224 216 210 207 208 208 208 208 216 223 228 228 229 229 229 227 224 223 224 231 238 236 225 210 198 192 190 191 191